Historyczne dane pomiarowe

Dodano dane terminowe – wersja testowa.

Dane z okresu 1951-2019

Wersja bazy: 1.34 [2019-03-16, lista zmian], aktualizacja planowana na 2019-04-15

Dane meteo z obszaru Polski uzyskane na podstawie danych udostępnionych przez Instytut Meteorologii i Gospodarki Wodnej – Państwowy Instytut Badawczy.

 

Wybierz Datę:    

       

TemperaturaWilgotnośćWiatrCiśnienieOpadyŚniegCzas trwania zjawisk
 Stacja t tx tn tng RH VA  wxwx mslp ppp RRR   cm mm wxwxwxwxwxwxwx
2019-07-25 22.1 29.4 13.2 10.2-- 1.7 0.7---- 0.0------------
2019-07-24 19.9 22.4 16.8 15.0-- 5.3 1.3---- 0.8------------
2019-07-23 18.6 23.6 14.8 15.1-- 7.7 1.0---- 0.5------------
2019-07-22 20.7 27.3 13.2 11.2-- 2.7 2.0---- 0.5------------
2019-07-21 20.8 29.9 13.8 11.7-- 4.0 2.0---- 10.9------------
2019-07-20 22.4 29.9 15.4 12.1-- 4.3 1.0---- 0.0------------
2019-07-19 18.3 28.3 7.6 5.8-- 2.0 1.3---- 0.8------------
2019-07-18 17.9 25.3 8.6 5.4-- 1.3 1.3---- 0.0------------
2019-07-17 17.7 23.8 12.3 9.7-- 4.7 3.3---- 0.0------------
2019-07-16 15.6 22.3 6.0 4.4-- 2.3 3.0---- 0.0------------
2019-07-15 16.6 24.8 7.8 7.8-- 2.3 1.3---- 0.0------------
2019-07-14 16.8 20.8 12.4 12.8-- 4.0 1.3---- 7.6------------
2019-07-13 17.3 23.6 10.8 9.2-- 7.3 1.3---- 0.9------------
2019-07-12 16.7 25.8 4.8 3.4-- 3.3 2.3---- 0.0------------
2019-07-11 15.5 20.3 9.6 7.7-- 4.0 2.3---- 0.2------------
2019-07-10 16.3 20.5 12.3 11.2-- 6.0 4.7---- 1.0------------
2019-07-09 15.6 21.5 8.8 6.2-- 6.0 3.3---- 0.0------------
2019-07-08 15.8 20.8 10.1 8.3-- 2.3 4.3---- 0.0------------
2019-07-07 20.3 25.9 15.3 14.2-- 6.0 3.3---- 0.0------------
2019-07-06 21.9 28.9 14.8 13.2-- 6.3 2.0---- 0.0------------
2019-07-05 17.0 24.8 7.3 5.3-- 7.3 4.0---- 0.0------------
2019-07-04 17.7 24.0 9.4 7.9-- 1.7 1.7---- 0.0------------
2019-07-03 18.5 25.4 11.3 11.2-- 2.0 3.7---- 0.0------------
2019-07-02 23.8 31.0 18.4 18.4-- 3.3 3.3---- 0.0------------
2019-07-01 27.1 36.5 16.0 12.6-- 2.3 5.3---- 0.0------------
2019-06-30 24.5 33.6 12.6 9.6-- 0.0 1.7---- 0.0------------
2019-06-29 20.3 27.2 9.8 9.5-- 1.0 2.0---- 0.0------------
2019-06-28 18.4 24.8 11.7 10.7-- 3.3 3.0---- 0.0------------
2019-06-27 25.6 31.0 22.3 21.1-- 1.7 4.7---- 0.0------------
2019-06-26 26.5 34.4 17.4 15.1-- 0.3 1.7---- 0.0------------
2019-06-25 23.7 30.8 14.3 12.8-- 0.3 2.3---- 0.0------------
2019-06-24 22.0 26.8 14.3 13.6-- 1.7 1.7---- 0.0------------
2019-06-23 21.4 26.8 15.4 14.6-- 3.0 2.0---- 0.0------------
2019-06-22 20.7 25.8 15.3 14.0-- 5.3 1.0---- 0.0------------
2019-06-21 21.4 27.8 16.2 15.1-- 5.7 1.7---- 0.0------------
2019-06-20 20.8 28.3 14.3 13.8-- 6.0 1.3---- 1.9------------
2019-06-19 22.4 29.4 15.2 13.6-- 3.7 1.3---- 0.0------------
2019-06-18 19.8 24.8 12.8 10.7-- 3.7 1.0---- 0.0------------
2019-06-17 19.3 22.8 16.3 16.2-- 5.7 1.3---- 0.0------------
2019-06-16 22.2 29.5 16.8 15.6-- 2.3 2.7---- 0.8------------
2019-06-15 26.2 33.3 18.7 16.6-- 2.0 1.7---- 0.0------------
2019-06-14 24.6 30.1 17.6 17.4-- 2.7 0.7---- 0.0------------
2019-06-13 24.1 31.2 15.3 14.6-- 0.3 1.7---- 0.0------------
2019-06-12 24.2 30.8 15.3 12.6-- 0.7 3.0---- 0.0------------
2019-06-11 24.4 30.1 16.6 13.6-- 0.3 2.7---- 0.0------------
2019-06-10 23.0 29.4 15.2 14.6-- 1.3 3.0---- 0.0------------
2019-06-09 19.8 25.3 12.3 9.7-- 0.7 1.7---- 0.0------------
2019-06-08 21.3 28.9 13.8 12.6-- 3.0 2.0---- 0.0------------
2019-06-07 20.3 27.3 12.3 10.7-- 4.0 2.3---- 0.0------------
2019-06-06 20.0 25.4 13.3 12.1-- 2.3 2.7---- 0.0------------
2019-06-05 20.7 25.8 14.3 11.8-- 1.3 2.7---- 0.0------------
2019-06-04 21.3 27.3 14.3 11.7-- 1.7 1.7---- 0.0------------
2019-06-03 20.3 26.3 12.2 11.8-- 0.0 1.0---- 0.0------------
2019-06-02 19.3 25.8 12.6 11.7-- 1.7 1.7---- 0.0------------
2019-06-01 17.3 23.4 8.8 8.2-- 5.0 1.0---- 0.4------------
2019-05-31 15.7 21.3 10.0 10.0-- 2.7 1.0---- 0.0------------
2019-05-30 12.1 14.9 10.3 10.7-- 8.0 2.0---- 2.9------------
2019-05-29 14.2 18.7 11.8 11.1-- 7.0 2.7---- 0.3------------
2019-05-28 18.4 22.3 13.6 12.6-- 4.0 3.0---- 0.0------------
2019-05-27 18.2 24.8 10.8 9.3-- 4.0 2.7---- 1.9------------
116.5 ms

 

Źródłem pochodzenia danych jest Instytut Meteorologii i Gospodarki Wodnej – Państwowy Instytut Badawczy. Dane Instytutu Meteorologii i Gospodarki Wodnej – Państwowego Instytutu Badawczego zostały przetworzone.

Dane źródłowe można odnaleźć na stronie https://dane.imgw.pl